Weather History for Milwaukee, WI

Change the Weather History Date:

Friday, February 15, 2013

  Actual Average Record
Temperature  
Mean Temperature 23 °F 26 °F  
Max Temperature 30 °F 32 °F 62 °F (1921)
Min Temperature 16 °F 19 °F -15 °F (1875)
Degree Days  
Heating Degree Days 42 39  
Month to date heating degree days 637 611  
Since 1 July heating degree days 4222 4496  
Cooling Degree Days 0 0  
Month to date cooling degree days 0 0  
Year to date cooling degree days 0 0  
Moisture  
Dew Point 12 °F    
Average Humidity 64    
Maximum Humidity 85    
Minimum Humidity 42    
Precipitation  
Precipitation 0.02 in 0.06 in 0.46 in (1975)
Month to date precipitation 1.33 0.83  
Year to date precipitation 4.50 2.59  
Snow  
Snow 0.40 in 0.30 in 4.10 in (1975)
Month to date snowfall 10.5 5.3  
Since 1 July snowfall 21.9 33.3  
Snow Depth 1.00 in    
Sea Level Pressure  
Sea Level Pressure 30.13 in    
Wind  
Wind Speed 11 mph (NW)    
Max Wind Speed 17 mph    
Max Gust Speed 23 mph    
Visibility 9 miles    
Events Snow    
T = Trace of Precipitation, MM = Missing Value Source: NWS Daily Summary

Daily Weather History Graph

Daily Weather History Graph

Search for Another Location

Airport:

Trip Planner

Search our weather history database for the weather conditions in past years. The results will help you decide how hot, cold, wet, or windy it might be!

Date:

Astronomy

Feb. 15, 2013 Rise Set
Actual Time 6:48 AM CST 5:23 PM CST
Civil Twilight 6:19 AM CST 5:52 PM CST
Nautical Twilight 5:46 AM CST 6:25 PM CST
Astronomical Twilight 5:13 AM CST 6:58 PM CST
Moon 9:14 AM CST (2/15) 11:34 PM CST (2/15)
Length of Visible Light 11h 32m
Length of Day
10h 34m
Waxing Crescent, 30% of the Moon is Illuminated
Feb 15
Waxing Crescent
Feb 17
First Quarter
Feb 25
Full
Mar 4
Last Quarter
Mar 11
New

Hourly Weather History & Observations

Time (CST) Temp. Windchill Dew Point Humidity Pressure Visibility Wind Dir Wind Speed Gust Speed Precip Events Conditions
12:16 AM 28.4 °F 21.2 °F 24.8 °F 86% 29.96 in 4.0 mi NNW 6.9 mph - 0.00 in Snow Light Snow
12:52 AM 28.9 °F 23.9 °F 24.1 °F 82% 30.00 in 7.0 mi NNW 4.6 mph - 0.00 in Snow Light Snow
1:02 AM 28.4 °F 19.7 °F 24.8 °F 86% 29.98 in 4.0 mi NNE 9.2 mph - 0.00 in Snow Light Snow
1:31 AM 26.6 °F 17.5 °F 23.0 °F 86% 29.99 in 3.0 mi North 9.2 mph - 0.01 in Snow Light Snow
1:52 AM 26.1 °F 15.0 °F 21.0 °F 81% 30.03 in 8.0 mi NNW 12.7 mph - 0.02 in Snow Light Snow
2:15 AM 26.6 °F 15.7 °F 21.2 °F 80% 30.01 in 6.0 mi NNW 12.7 mph - 0.00 in Snow Light Snow
2:25 AM 24.8 °F 14.0 °F 21.2 °F 86% 30.02 in 3.0 mi NW 11.5 mph - 0.00 in Snow Light Snow
2:52 AM 24.1 °F 11.5 °F 17.1 °F 75% 30.06 in 9.0 mi NNW 15.0 mph - 0.00 in Snow Light Snow
3:52 AM 23.0 °F 10.6 °F 16.0 °F 74% 30.07 in 10.0 mi NNW 13.8 mph 19.6 mph 0.00 in   Overcast
4:01 AM 23.0 °F 10.1 °F 15.8 °F 74% 30.04 in 10.0 mi NW 15.0 mph - N/A   Overcast
4:31 AM 21.2 °F 8.3 °F 10.4 °F 63% 30.06 in 10.0 mi NNW 13.8 mph - N/A   Scattered Clouds
4:52 AM 21.0 °F 9.9 °F 10.0 °F 63% 30.10 in 10.0 mi NW 10.4 mph - N/A   Partly Cloudy
5:52 AM 19.9 °F 6.7 °F 10.0 °F 65% 30.13 in 10.0 mi NW 13.8 mph 18.4 mph N/A   Partly Cloudy
6:52 AM 18.0 °F 6.9 °F 9.0 °F 68% 30.15 in 10.0 mi NW 9.2 mph 18.4 mph N/A   Scattered Clouds
7:52 AM 18.0 °F 6.9 °F 9.0 °F 68% 30.17 in 10.0 mi NW 9.2 mph - N/A   Scattered Clouds
8:52 AM 19.9 °F 10.1 °F 9.0 °F 62% 30.19 in 10.0 mi NW 8.1 mph - N/A   Scattered Clouds
9:52 AM 23.0 °F 13.1 °F 10.9 °F 60% 30.19 in 10.0 mi NNW 9.2 mph - N/A   Partly Cloudy
10:52 AM 24.1 °F 13.1 °F 10.0 °F 55% 30.19 in 10.0 mi NW 11.5 mph 17.3 mph N/A   Partly Cloudy
11:52 AM 25.0 °F 15.5 °F 10.0 °F 53% 30.18 in 10.0 mi WNW 9.2 mph - N/A   Scattered Clouds
12:52 PM 25.0 °F 13.1 °F 9.0 °F 51% 30.17 in 10.0 mi WNW 13.8 mph - N/A   Scattered Clouds
1:52 PM 27.0 °F 17.3 °F 9.0 °F 47% 30.16 in 10.0 mi NNW 10.4 mph - N/A   Scattered Clouds
2:52 PM 27.0 °F 16.7 °F 9.0 °F 47% 30.17 in 10.0 mi NW 11.5 mph - N/A   Scattered Clouds
3:52 PM 26.1 °F 15.6 °F 7.0 °F 44% 30.18 in 10.0 mi WNW 11.5 mph 16.1 mph N/A   Scattered Clouds
4:52 PM 25.0 °F 15.5 °F 7.0 °F 46% 30.19 in 10.0 mi West 9.2 mph - N/A   Scattered Clouds
5:52 PM 24.1 °F 14.4 °F 7.0 °F 48% 30.19 in 10.0 mi WNW 9.2 mph - N/A   Scattered Clouds
6:52 PM 23.0 °F 14.7 °F 6.8 °F 50% 30.15 in 10.0 mi WNW 6.9 mph - N/A   Scattered Clouds
7:52 PM 21.9 °F 13.4 °F 7.0 °F 53% 30.20 in 10.0 mi WNW 6.9 mph - N/A   Mostly Cloudy
8:52 PM 21.0 °F 9.3 °F 6.1 °F 53% 30.20 in 10.0 mi NW 11.5 mph - N/A   Mostly Cloudy
9:52 PM 19.0 °F 5.6 °F 6.1 °F 57% 30.20 in 10.0 mi NW 13.8 mph - N/A   Mostly Cloudy
10:52 PM 17.1 °F 3.0 °F 3.9 °F 56% 30.20 in 10.0 mi NW 13.8 mph - N/A   Partly Cloudy
11:52 PM 16.0 °F 3.6 °F 3.9 °F 59% 30.19 in 10.0 mi NW 10.4 mph - N/A   Clear